Theta_e
316 315 315 315 317 313 311 316 316 315 316 319 317 317 317 317 316 317 318 318 317 315 318 319 319 320 320 321 320 320 322 326 327 330 331 331 329 329 329 329 330 331 330 328
316 316 311 312 315 316 315 315 315 315 315 316 315 314 313 313 314 315 316 315 317 318 316 315 316 318 319 320 319 319 320 323 327 327 329 330 330 329 329 329 328 329 331 331
311 311 312 313 315 318 318 317 314 315 315 314 315 315 312 312 314 315 316 318 318 319 319 319 319 319 320 319 319 319 320 322 325 326 327 330 331 331 330 329 328 325 326 329
312 309 312 313 314 316 317 316 314 315 316 314 314 310 310 311 313 313 315 317 318 318 319 319 319 319 318 319 319 319 319 320 322 324 326 327 330 330 329 328 328 328 328 327
312 311 310 313 313 315 314 315 316 314 314 316 314 315 312 314 315 313 313 316 317 317 317 317 317 317 318 319 320 320 319 319 320 321 324 326 328 329 330 331 331 330 327 326
310 312 311 311 312 313 312 313 315 314 317 317 314 314 311 310 312 313 314 316 316 316 316 317 317 318 319 320 321 319 319 319 320 321 325 328 329 330 331 331 331 331 329 328
312 311 311 313 313 313 314 314 311 315 317 314 309 313 312 310 310 310 310 314 315 316 316 312 312 313 316 319 321 321 321 322 324 326 327 328 329 330 331 331 331 331 330 330
312 312 311 310 314 314 315 314 309 309 312 313 311 316 313 312 313 313 313 314 314 314 309 308 308 307 308 312 315 320 322 324 325 327 327 328 329 329 330 329 330 329 329 329
310 310 307 309 312 313 314 316 312 312 306 309 311 311 312 311 311 312 313 313 313 309 308 306 306 306 306 308 309 311 312 314 318 322 325 326 326 326 327 328 328 327 327 326
306 308 308 309 312 312 312 312 315 315 314 315 312 313 314 312 310 309 308 310 310 307 306 306 305 305 307 308 307 307 307 306 305 306 308 309 311 312 313 314 314 314 314 315
304 305 307 310 312 312 313 314 312 311 314 314 310 312 309 311 311 308 307 310 307 307 306 304 305 305 306 306 306 305 304 303 303 302 301 302 302 303 305 307 308 309 310 311
304 304 308 310 306 309 311 312 313 313 312 313 311 310 307 307 308 307 309 307 307 307 304 304 304 304 303 303 303 303 302 302 301 300 300 300 300 300 300 301 301 301 302 303
306 307 306 309 309 309 311 311 311 310 306 311 312 312 306 306 305 308 307 306 305 303 302 302 302 302 302 301 301 301 301 301 300 300 300 300 300 300 300 299 299 299 299 299
308 306 308 308 308 308 311 311 311 312 312 312 311 309 308 305 303 304 305 304 303 301 301 300 300 300 300 299 300 300 300 299 300 300 300 300 300 300 300 300 300 300 300 299
308 309 306 306 306 307 308 310 311 311 312 311 310 310 310 304 303 303 304 300 299 299 298 297 297 297 297 297 298 298 298 299 299 299 300 300 300 300 300 300 300 300 300 300
308 308 305 302 305 306 306 308 309 311 311 311 309 308 306 306 304 299 298 298 297 295 294 294 294 295 295 296 296 296 297 298 298 299 299 299 299 299 299 299 299 299 299 299
308 309 309 309 305 306 306 307 308 309 310 311 312 310 303 298 296 294 294 294 292 291 292 292 293 293 294 294 294 295 296 297 297 297 296 296 296 297 298 298 297 297 297 298
309 309 308 306 307 310 306 302 307 309 308 309 304 302 301 298 290 289 289 289 288 288 289 290 290 291 291 292 291 292 292 293 293 293 294 294 295 295 295 295 295 296 296 297
308 308 303 304 308 303 302 301 302 306 308 300 305 292 288 287 287 284 285 286 286 287 287 288 289 289 289 289 290 291 291 291 291 292 292 292 292 293 293 294 294 294 295 295
308 308 308 297 307 308 302 296 294 301 305 289 292 291 289 290 296 287 283 284 284 285 286 287 287 287 286 287 288 289 289 289 289 289 290 290 290 291 291 291 292 292 292 293
309 309 308 304 305 300 297 291 293 302 300 286 288 286 288 289 285 283 282 283 283 283 284 285 284 284 284 285 286 286 286 287 287 287 287 288 288 288 289 289 289 289 290 290
309 308 307 302 303 305 285 291 301 291 285 284 283 283 283 283 281 282 282 282 282 283 283 283 283 282 281 282 284 285 285 285 285 286 286 286 286 286 286 286 286 286 285 286
307 304 300 301 300 283 282 282 283 285 283 281 282 281 282 281 280 280 280 280 280 281 281 281 282 282 281 281 281 282 283 284 284 285 285 285 285 284 284 283 283 283 283 284
293 293 295 291 284 282 279 278 281 282 281 280 280 280 280 280 279 279 279 279 280 280 279 280 281 282 282 282 281 281 281 281 282 282 283 282 282 283 282 282 282 281 281 281
291 293 289 285 281 280 279 278 278 278 279 279 279 279 279 278 278 278 278 278 278 277 278 279 279 279 279 279 278 278 278 277 278 278 279 279 279 280 280 280 280 279 279 278
283 290 294 295 283 284 280 277 277 277 276 277 277 277 277 278 277 277 277 277 277 277 277 277 277 277 277 277 277 276 276 276 275 275 275 276 276 277 277 277 279 280 280 279
Wind_Speed
14 6 19 19 15 6 6 5 8 2 3 3 8 12 19 19 17 21 33 32 29 32 31 26 24 25 24 23 24 27 27 29 32 35 36 36 33 32 32 32 31 30 30 30
8 23 5 8 7 7 4 4 5 4 3 3 5 11 14 14 15 25 29 34 32 29 28 29 28 25 25 27 30 31 30 27 30 35 36 36 36 33 32 32 32 32 32 32
10 3 16 9 8 13 13 16 4 3 3 3 5 16 10 11 15 20 26 30 28 27 27 24 23 24 27 32 32 31 32 29 26 29 35 38 38 38 34 33 34 32 33 34
11 15 7 5 18 15 16 7 7 5 3 5 3 10 7 4 5 5 13 18 23 25 26 26 27 28 26 27 28 30 30 30 27 26 31 36 38 37 32 31 27 30 31 32
9 9 16 11 9 12 6 8 12 6 4 3 7 4 5 1 4 6 10 14 14 15 17 18 15 17 20 19 23 24 25 28 25 26 26 32 36 35 36 36 34 31 28 27
6 2 11 14 7 16 7 5 4 3 9 10 16 8 17 11 6 5 10 16 17 13 7 4 1 3 9 14 15 15 17 19 23 23 23 27 31 34 36 36 36 35 32 29
16 6 3 6 8 4 8 8 3 6 7 13 10 8 21 3 4 5 9 13 6 1 6 9 8 9 8 6 4 7 9 9 11 13 15 16 20 25 29 30 32 32 33 33
12 10 15 5 8 8 22 14 5 7 5 8 4 10 17 4 21 27 27 20 7 10 11 12 13 14 14 15 16 12 4 5 6 7 6 7 9 12 16 18 21 22 25 27
12 12 5 7 5 14 15 17 8 3 1 2 5 7 10 7 7 7 4 5 12 16 15 16 15 16 17 19 21 20 20 18 13 7 2 2 6 9 11 13 16 19 21 24
7 1 5 7 6 11 9 7 8 7 8 9 4 4 9 2 6 5 7 16 22 17 18 17 17 17 18 19 19 18 18 19 18 16 15 12 9 6 4 5 8 12 15 20
7 4 0 12 15 22 8 9 6 4 7 5 3 7 7 11 6 8 10 26 21 18 17 17 18 18 17 15 14 14 15 15 16 16 14 12 11 10 7 7 9 11 13 15
7 5 4 12 4 12 19 16 19 6 10 5 1 5 4 7 8 18 20 20 17 13 15 17 17 15 13 12 10 10 11 11 13 13 12 11 11 11 11 12 13 14 16 17
13 5 4 2 1 0 11 13 14 5 2 11 6 8 1 4 10 14 20 15 13 15 16 16 13 11 10 8 7 7 8 10 12 12 13 13 14 14 16 19 20 21 22 23
25 6 17 15 8 7 12 18 18 20 12 17 11 8 3 3 7 13 18 14 16 16 14 11 9 7 6 5 7 8 10 12 14 16 19 20 21 21 22 24 27 29 30 31
12 15 10 12 3 5 8 19 20 17 24 14 19 13 17 9 10 14 14 18 17 14 11 7 4 3 6 8 10 12 13 17 19 22 24 26 28 30 32 34 36 38 40 40
9 4 8 1 3 6 4 13 18 22 23 19 4 13 5 13 18 16 19 18 15 10 6 3 4 6 9 12 14 16 19 21 24 25 28 30 33 35 39 42 45 47 49 49
9 9 9 19 5 3 2 21 15 17 16 20 17 17 6 5 11 13 18 16 13 7 3 2 6 9 12 15 19 21 23 25 28 31 33 35 39 42 44 47 49 49 49 49
19 16 4 2 8 10 9 4 20 19 13 19 6 6 7 14 18 17 14 12 9 5 1 4 9 11 14 17 20 21 22 24 27 29 33 36 39 41 41 42 43 45 46 47
15 11 3 4 11 3 3 4 7 10 13 5 12 8 13 25 19 7 9 8 5 1 2 6 9 12 13 16 19 21 23 24 26 28 29 31 33 36 38 39 41 43 45 47
14 14 9 3 4 10 4 3 2 6 12 3 7 12 17 19 7 4 9 6 2 1 3 5 9 11 14 16 18 19 21 24 25 26 28 30 31 34 36 37 38 39 40 43
7 5 11 5 3 6 3 2 2 7 4 8 9 10 12 3 4 17 8 5 2 2 4 7 9 10 13 16 18 20 22 24 27 28 29 30 31 33 34 37 37 39 41 44
11 8 4 3 3 7 1 2 10 7 12 17 17 14 16 16 13 10 8 5 3 4 6 8 9 11 15 18 19 21 23 26 28 29 31 33 34 35 38 40 42 42 42 45
4 4 5 5 3 4 6 8 9 10 20 15 18 15 16 15 11 8 7 6 5 6 7 9 11 12 15 18 22 24 26 28 31 32 34 36 38 39 39 42 44 45 44 45
2 3 4 4 3 4 7 13 15 18 20 17 15 14 12 13 9 8 7 6 5 6 7 9 11 13 16 19 22 25 28 31 33 35 37 38 41 42 41 42 43 45 45 46
1 6 7 4 6 9 4 10 15 17 17 18 15 14 13 10 8 7 7 5 5 6 9 12 15 18 20 22 24 27 30 34 36 37 38 40 42 43 44 43 44 44 42 39
5 6 5 4 18 6 9 16 15 16 15 14 15 15 14 12 9 7 5 4 5 8 11 15 18 21 24 26 28 31 32 35 38 40 40 40 42 43 44 46 50 45 43 42
Wind_Direction
187 187 211 193 205 212 181 187 204 231 260 208 235 247 263 263 253 259 266 273 272 278 279 277 274 273 269 269 277 279 274 265 255 252 249 248 252 255 256 258 261 261 261 263
184 225 157 169 189 202 181 192 215 296 241 210 289 266 264 253 247 250 263 272 274 276 270 269 270 272 271 275 278 271 268 268 259 253 253 254 256 259 262 264 264 264 263 263
198 207 169 169 179 206 224 225 142 187 355 299 347 289 240 259 238 249 252 258 262 265 267 270 271 272 274 276 270 271 258 262 265 260 253 253 253 256 259 263 264 263 263 264
233 238 192 190 204 187 223 178 165 183 99 241 131 278 230 229 249 209 247 250 255 258 262 268 276 280 282 282 269 262 253 251 258 263 254 255 256 259 265 270 277 276 272 269
210 160 199 214 201 181 220 153 195 164 177 29 245 286 288 240 282 266 257 255 259 271 278 285 285 289 281 289 275 256 247 242 251 259 261 256 257 264 268 272 276 277 284 281
199 192 177 209 161 182 134 78 81 116 223 243 234 201 265 234 199 218 244 250 269 285 281 281 290 311 296 288 278 253 241 242 242 259 268 267 264 265 267 273 279 285 288 288
209 217 237 163 146 131 166 134 184 214 210 239 152 178 246 264 276 239 244 256 240 148 141 135 107 77 64 29 316 245 231 224 240 256 271 281 282 281 281 284 286 290 292 293
189 212 209 195 192 186 201 197 164 195 209 233 183 214 236 213 240 260 250 255 183 153 143 116 93 78 71 76 71 78 121 195 216 226 240 269 285 286 292 297 297 301 302 304
186 227 242 174 160 170 192 213 199 109 58 89 213 280 303 239 250 250 258 217 178 148 128 110 95 83 74 78 78 81 84 87 88 93 138 230 254 265 265 271 283 291 292 295
197 211 185 172 134 228 172 140 195 219 210 230 257 256 232 308 260 196 153 155 146 135 124 109 97 92 91 89 88 87 84 84 83 83 77 72 69 54 14 312 301 296 290 286
162 140 341 139 204 197 167 207 213 182 197 207 199 249 218 227 190 173 162 146 142 130 120 102 105 107 103 101 93 84 79 75 72 68 67 63 57 46 29 8 349 335 330 321
174 135 156 199 327 211 212 213 204 203 208 211 119 265 303 227 192 159 155 142 135 117 114 115 116 110 98 85 79 71 59 54 49 44 39 35 30 23 13 5 353 340 330 324
181 199 131 41 37 201 206 218 211 191 77 202 201 232 90 144 127 149 140 127 106 117 121 118 114 102 90 74 59 41 22 18 14 9 5 358 354 352 352 349 346 342 335 328
177 190 208 214 229 133 199 208 208 208 223 229 222 242 241 184 156 151 138 124 132 132 127 115 106 86 70 37 11 358 351 347 346 345 345 343 339 337 335 333 331 329 328 326
193 215 208 228 160 195 207 209 208 210 222 216 229 218 236 185 172 153 136 139 135 129 128 117 95 34 3 348 346 342 342 337 338 337 334 331 327 326 324 323 322 319 318 315
191 229 183 195 144 178 187 207 205 210 222 225 247 234 174 165 137 130 142 148 141 135 124 84 19 353 341 339 335 335 337 336 334 330 327 325 322 321 320 319 318 317 315 313
189 182 179 222 148 82 272 221 198 213 215 208 216 222 157 111 123 133 146 153 146 143 126 7 342 339 334 332 333 336 337 333 330 329 327 326 323 321 320 318 316 314 313 311
187 192 183 191 150 220 249 216 203 206 212 215 220 165 164 147 136 140 147 145 140 140 58 351 341 338 337 335 337 339 336 334 332 329 328 326 324 322 321 320 319 318 317 315
192 178 134 161 199 303 285 196 151 174 228 211 215 115 116 126 123 107 136 142 149 125 0 341 338 335 334 336 337 336 335 335 336 334 333 331 329 328 328 327 326 325 322 319
192 194 189 152 170 206 222 170 85 89 251 156 141 152 152 152 173 154 164 153 151 47 344 347 344 343 344 345 346 345 345 345 344 345 344 342 338 335 333 331 330 327 323 319
185 193 201 172 199 281 229 133 219 144 235 124 137 126 142 138 80 145 153 149 125 31 11 10 2 2 358 356 355 353 350 349 347 346 344 342 341 337 336 333 335 332 329 327
170 174 170 113 141 261 10 160 181 107 111 129 130 130 132 136 135 139 140 129 93 44 26 19 13 12 3 357 353 350 346 344 342 341 340 340 339 340 340 338 339 337 334 330
167 158 172 182 202 44 71 77 111 139 138 143 137 138 139 137 135 131 117 97 72 43 27 16 10 6 359 355 351 346 343 340 338 337 337 336 337 338 339 337 338 335 335 332
25 51 114 131 152 125 100 104 119 139 135 140 140 141 141 131 129 120 104 85 63 33 14 8 2 356 351 349 346 340 337 334 334 333 334 334 332 333 335 335 336 334 333 330
106 137 128 81 119 113 113 126 132 128 133 137 139 140 133 126 120 119 108 85 52 17 4 359 354 350 346 342 340 336 333 330 330 330 331 330 329 330 329 330 332 331 329 324
194 154 186 189 164 117 149 155 150 138 138 142 144 139 136 139 136 123 101 64 26 7 357 351 347 341 337 334 333 329 327 325 325 324 326 325 324 325 327 327 325 328 329 326